| time (UTC) | temp F | wind direction | speed knots | gust knots | rain 1hr in | rain 24hr in | rain mn in | humidity % | barometer mb |
| 20260901054504 | 61 | 276 | 1.7 | 2.6 | 0.00 | 0.01 | 0.01 | 91 | 1006.6 |
| 20260901051504 | 61 | 250 | 0.9 | 2.6 | 0.00 | 0.01 | 0.01 | 92 | 1006.5 |
| 20260901041505 | 61 | 201 | 0.9 | 4.3 | 0.00 | 0.01 | 0.01 | 92 | 1006.5 |
| 20260901040004 | 61 | 210 | 1.7 | 5.2 | 0.00 | 0.01 | 0.01 | 92 | 1006.6 |
| 20260901033005 | 61 | 241 | 2.6 | 7.0 | 0.00 | 0.01 | 0.01 | 91 | 1006.6 |
| 20260901031503 | 61 | 226 | 1.7 | 5.2 | 0.00 | 0.01 | 0.01 | 91 | 1006.4 |
| 20260901024504 | 62 | 218 | 1.7 | 5.2 | 0.00 | 0.01 | 0.01 | 91 | 1006.3 |
| 20260901014504 | 62 | 207 | 1.7 | 6.1 | 0.01 | 0.01 | 0.01 | 91 | 1006.3 |
| 20260901011503 | 62 | 204 | 1.7 | 2.6 | 0.00 | 0.00 | 0.00 | 91 | 1006.3 |
| 20260901001503 | 63 | 192 | 0.9 | 5.2 | 0.00 | 0.00 | 0.00 | 91 | 1006.1 |
| 20260901000004 | 63 | 229 | 1.7 | 4.3 | 0.00 | 0.00 | 0.00 | 91 | 1006.1 |
| 20260831233003 | 63 | 224 | 1.7 | 6.1 | 0.00 | 0.00 | 0.00 | 92 | 1006.1 |
| 20260831231503 | 63 | 214 | 1.7 | 6.1 | 0.00 | 0.00 | 0.00 | 94 | 1006.4 |
| 20260831214504 | 62 | 162 | 1.7 | 6.1 | 0.00 | 0.00 | 0.00 | 93 | 1006.4 |
| 20260831211503 | 63 | 162 | 2.6 | 7.0 | 0.00 | 0.00 | 0.00 | 93 | 1006.3 |
| 20260831210005 | 63 | 162 | 2.6 | 6.1 | 0.00 | 0.00 | 0.00 | 93 | 1006.5 |
| 20260831201504 | 63 | 176 | 1.7 | 6.1 | 0.00 | 0.00 | 0.00 | 92 | 1006.5 |
| 20260831193004 | 63 | 151 | 2.6 | 7.0 | 0.00 | 0.00 | 0.00 | 93 | 1006.5 |
| 20260831191504 | 63 | 143 | 0.9 | 5.2 | 0.00 | 0.00 | 0.00 | 93 | 1006.4 |
| 20260831190004 | 63 | 173 | 1.7 | 6.1 | 0.00 | 0.00 | 0.00 | 93 | 1006.4 |
| 20260831181503 | 63 | 172 | 0.9 | 4.3 | 0.00 | 0.00 | 0.00 | 92 | 1006.4 |
| 20260831180004 | 64 | 180 | 0.9 | 2.6 | 0.00 | 0.00 | 0.00 | 91 | 1006.4 |
| 20260831174504 | 64 | 180 | 0.9 | 4.3 | 0.00 | 0.00 | 0.00 | 91 | 1006.4 |
| 20260831173005 | 65 | 189 | 1.7 | 7.8 | 0.00 | 0.00 | 0.00 | 90 | 1006.4 |
| 20260831171504 | 65 | 219 | 2.6 | 7.0 | 0.00 | 0.00 | 0.00 | 89 | 1006.4 |
| 20260831164504 | 66 | 162 | 1.7 | 7.0 | 0.00 | 0.00 | 0.00 | 86 | 1006.5 |
| 20260831160004 | 66 | 180 | 2.6 | 8.7 | 0.00 | 0.01 | 0.00 | 85 | 1006.7 |
| 20260831141504 | 67 | 219 | 2.6 | 7.0 | 0.00 | 0.07 | 0.00 | 81 | 1007.4 |
| 20260831140005 | 67 | 188 | 1.7 | 10.4 | 0.00 | 0.07 | 0.00 | 81 | 1007.6 |
| 20260831134505 | 66 | 181 | 2.6 | 10.4 | 0.00 | 0.07 | 0.00 | 79 | 1007.4 |
| 20260831133005 | 66 | 175 | 1.7 | 7.8 | 0.00 | 0.09 | 0.00 | 79 | 1007.4 |
| 20260831131504 | 66 | 197 | 2.6 | 7.8 | 0.00 | 0.09 | 0.00 | 79 | 1007.6 |
| 20260831121504 | 68 | 207 | 2.6 | 7.8 | 0.00 | 0.09 | 0.00 | 76 | 1007.4 |
| 20260831111504 | 68 | 205 | 1.7 | 7.0 | 0.00 | 0.09 | 0.00 | 77 | 1007.3 |
| 20260831104504 | 68 | 214 | 2.6 | 10.4 | 0.00 | 0.09 | 0.00 | 78 | 1007.6 |
| 20260831103004 | 69 | 213 | 4.3 | 10.4 | 0.00 | 0.09 | 0.00 | 77 | 1008.0 |
| 20260831101505 | 67 | 200 | 2.6 | 8.7 | 0.00 | 0.10 | 0.00 | 80 | 1008.0 |
| 20260831100004 | 67 | 208 | 2.6 | 7.8 | 0.00 | 0.10 | 0.00 | 80 | 1008.0 |
| 20260831091504 | 66 | 204 | 2.6 | 10.4 | 0.00 | 0.10 | 0.00 | 81 | 1007.8 |
| 20260831084504 | 66 | 204 | 2.6 | 6.1 | 0.00 | 0.10 | 0.00 | 83 | 1007.5 |
| 20260831083006 | 66 | 219 | 1.7 | 7.8 | 0.00 | 0.10 | 0.00 | 83 | 1007.5 |
| 20260831080004 | 65 | 203 | 1.7 | 6.1 | 0.00 | 0.10 | 0.00 | 83 | 1007.5 |
| 20260831071505 | 63 | 249 | 1.7 | 4.3 | 0.00 | 0.10 | 0.00 | 86 | 1007.6 |
| 20260831070003 | 63 | 231 | 1.7 | 5.2 | 0.00 | 0.10 | 0.00 | 87 | 1007.6 |
| 20260831063004 | 62 | 255 | 2.6 | 7.0 | 0.00 | 0.10 | 0.00 | 88 | 1007.8 |